Location: Buckland
(65.9785°N, 161.1281°W)
Time: 07:13:49
(UTC+00:00)

Transit 4A - Pass Details

Date: 05 August 2021
Orbit: 870 x 974 km, 66.8° (Epoch: 27 September)

Event Time Altitude Azimuth Distance (km) Brightness Sun altitude
Exits shadow 11:17:22 - 220° (SW) 3,196 10.2 -7.0°
Reaches altitude 10° 11:19:09 10° 217° (SW) 2,527 9.7 -7.0°
Maximum altitude 11:24:50 56° 141° (SE) 1,030 8.0 -6.9°
Drops below altitude 10° 11:30:31 10° 65° (ENE) 2,535 10.7 -6.8°
Sets 11:33:03 0° 61° (ENE) 3,483 11.5 -6.8°
